Hlavní strana
METAR-TAF:

METAR-TAF

Letiště :

Jacksonville Municipal Airport

Jacksonville, Illinois, Spojené státy americké

zeměpisná šířka: 39-46-27N, zeměpisná délka: 090-14-19W, výška: 190 m

Aktuální stav počasí

Zpráva byla vytvořena před 15 minutami, v 01:15 UTC
Severozápadní vítr 5 kt
Teplota -5°C
Vlhkost vzduchu 63%
Tlak 1040 hPa
Viditelnost: 16.1 km
Jasno

METAR: KIJX 210115Z AUTO 32005KT 10SM CLR M05/M11 A3072 RMK AO2 T10551106

Čas: 19:30 (01:30 UTC)


TAF: chybějící

Stav a předpovědi počasí z více než 4 000 letišť (zprávy METAR a TAF).

Červené a žluté tečky na mapě představují dostupné meteorologické stanice.

Když kurzor umístíte na tečku, zobrazí se název stanice.

Pak kliknutím zobrazíte stav a předpověď počasí.

Chcete-li změnit mapu, kliknutím na zelené tlačítko se znaménkem +mapu přiblížíte, kliknutím na zelené tlačítko se znaménkem – mapu oddálíte a kliknutím na zelené šipky přejdete na sousední mapy.


METAR-TAF: